Location: Bowman Observatory
(41.0326°N, 73.6210°W)
Time: 19:40:54
(UTC-04:00)

Cosmos 2297 - Visible Passes

Search period start: 31 July 2014 00:00
Search period end: 10 August 2014 00:00
Orbit: 834 x 861 km, 71.0° (Epoch: 30 July)

Date Brightness Start Highest point End Pass type
(mag) Time Alt. Az. Time Alt. Az. Time Alt. Az.
31 Jul 4.5 03:08:07 33° SSE 03:10:00 44° ESE 03:15:23 10° NE visible
31 Jul 4.9 04:50:04 12° WSW 04:54:21 28° NW 04:59:13 10° N visible
01 Aug 4.4 02:55:25 37° SE 02:56:46 43° ESE 03:02:08 10° NE visible
01 Aug 4.9 04:37:22 15° WSW 04:41:05 28° NW 04:45:59 10° N visible
02 Aug 4.4 02:42:41 40° SE 02:43:31 42° ESE 02:48:52 10° NE visible
02 Aug 4.9 04:24:38 18° WSW 04:27:49 29° NW 04:32:45 10° N visible
03 Aug 4.4 02:29:55 41° ESE 02:30:16 42° ESE 02:35:36 10° NE visible
03 Aug 4.9 04:11:51 20° W 04:14:33 29° NW 04:19:31 10° N visible
04 Aug 4.5 02:17:06 41° ESE 02:17:06 41° ESE 02:22:20 10° NE visible
04 Aug 4.9 03:59:03 23° W 04:01:18 30° NW 04:06:17 10° N visible
05 Aug 4.6 02:04:16 39° E 02:04:16 39° E 02:09:04 10° NE visible
05 Aug 4.8 03:46:13 25° W 03:48:02 31° NW 03:53:03 10° N visible
06 Aug 4.7 01:51:25 37° E 01:51:25 37° E 01:55:48 10° NE visible
06 Aug 4.8 03:33:21 28° W 03:34:46 31° WNW 03:39:49 10° N visible
07 Aug 4.9 01:38:31 34° ENE 01:38:31 34° ENE 01:42:32 10° NE visible
07 Aug 4.8 03:20:27 30° WNW 03:21:31 32° WNW 03:26:35 10° N visible
08 Aug 5.0 01:25:36 32° ENE 01:25:36 32° ENE 01:29:16 10° NE visible
08 Aug 4.7 03:07:32 31° WNW 03:08:15 32° WNW 03:13:21 10° N visible
09 Aug 5.1 01:12:39 29° ENE 01:12:39 29° ENE 01:16:00 10° NE visible
09 Aug 4.7 02:54:35 32° WNW 02:54:59 33° WNW 03:00:07 10° N visible
